Regional Weather Roundup
Issued by NWS New Orleans/Baton Rouge, LA

Home | Current Version | Previous Version | Graphics & Text | Print | Product List | Glossary On
Versions: 1 2 3 4 5 6 7 8 9 10 11 12 13 14 15 16 17 18 19 20 21 22 23 24 25 26 27 28 29 30 31 32 33 34 35 36 37 38 39 40 41 42 43 44 45 46 47 48 49 50
036
ASUS44 KLIX 031001
RWRLIX
NEW ORLEANS REGIONAL WEATHER ROUNDUP
NATIONAL WEATHER SERVICE NEW ORLEANS LA
400 AM CST TUE MAR 03 2015

NOTE: "FAIR" INDICATES FEW OR NO CLOUDS BELOW 12,000 FEET WITH NO
      SIGNIFICANT WEATHER AND/OR OBSTRUCTIONS TO VISIBILITY.
      SKY/WX - SKY CONDITION AND SIGNIFICANT WEATHER.
      TMP - AIR TEMPERATURE.     DP    - DEWPOINT TEMPERATURE.
      RH  - RELATIVE HUMIDITY.   PRES  - PRESSURE.
      HI  - HEAT INDEX.          WCI   - WIND CHILL INDEX.

*  THESE STATIONS ARE NOT NWS OR FAA STATIONS AND ARE NOT UNDER
   NWS QUALITY CONTROL.

LAZ038-040-048-061>063-065>067-069-031100-
SOUTHEAST LOUISIANA

CITY           SKY/WX    TMP DP  RH WIND       PRES   REMARKS
N.O. AUDUBON     N/A     66  66 100 MISG        N/A
N.O. INTL ARPT FOG       65  64  97 S3        30.12S VSB 1/2
N.O. LAKEFRONT FOG       66  63  90 S6        30.13S VSB 1/4
SLIDELL        FOG       64  64 100 S5        30.12S VSB 1/4
BATON ROUGE    FOG       56  56 100 CALM      30.11F VSB 1/4
BOOTHVILLE     FOG       63  63 100 SE5       30.13F VSB 1/2
BELLE CHASSE   FOG       67  65  93 SE3       30.12S VSB 1/2
BOGALUSA*      FOG       65  62  91 S3        30.14R VSB 1/4
GALLIANO*      FOG       57  57  98 MISG      30.12S VSB 1/4
NEW ROADS*     NOT AVBL
GONZALES*      NOT AVBL
HAMMOND*       NOT AVBL
HOUMA*         HVY RAIN  62  62 100 CALM      30.11F VSB<1/4
PORT FOURCHON* NOT AVBL

$$

MSZ070-080>082-031100-
SOUTHERN MISSISSIPPI

CITY           SKY/WX    TMP DP  RH WIND       PRES   REMARKS
MCCOMB         FOG       61  60  97 CALM      30.11F VSB 1/4
GULFPORT       FOG       62  62 100 SE5       30.12S VSB 1/4
BILOXI         FOG       64  64 100 SE8       30.12F VSB 1/2
PASCAGOULA     CLOUDY    63  63 100 SE6       30.14S FOG

$$

COASTAL OBSERVATIONS
LAKE AND NEARSHORE STATIONS

STATION/POSITION TIME  TEMP    WIND        PRES    WAVE
                       AIR SEA DIR/SP/G            HT/PER
                 (UTC) (F)     (DEG/KT/KT) (MB)    (FT/S)
PASCAGOULA       0900   62     130/  5/  8 1020.3
WAVELAND YACHT   0900   60     160/  7/  7 1019.9
GRAND ISLE       0900   64     110/  3/  4 1020.6
SOUTHWEST PASS   0900   60     120/ 12/ 12 1020.4
NEW CANAL        0900   64     140/  2/  3 1020.3
SHELL BEACH      0900   64     150/  8/ 10 1020.0

OFFSHORE STATIONS

STATION/POSITION TIME  TEMP    WIND        PRES    WAVE
                       AIR SEA DIR/SP/G            HT/PER
                 (UTC) (F)     (DEG/KT/KT) (MB)    (FT/S)
64 S DAUPHIN ISL 0927   70 71  140/ 10/ 12 1021.0    2/ 7

$$




USA.gov is the U.S. government's official web portal to all federal, state and local government web resources and services.